Weather Service Report


096 
ASUS44 KSJT 300011
RWRSJT
WEST CENTRAL TEXAS REGIONAL WEATHER ROUNDUP
NATIONAL WEATHER SERVICE SAN ANGELO TX
700 PM CDT FRI APR 29 2016

NOTE: "FAIR" INDICATES FEW OR NO CLOUDS BELOW 12,000 FEET WITH NO
SIGNIFICANT WEATHER AND/OR OBSTRUCTIONS TO VISIBILITY.

TXZ049-054-064>066-071>073-076>078-098-099-113-114-127-128-139-140-
154-155-168>170-300100
...LOCATIONS ACROSS WEST CENTRAL TEXAS...
  
CITY           SKY/WX    TMP DP  RH WIND       PRES   REMARKS
SAN ANGELO     SUNNY     85  42  22 W9        29.62R                  
ABILENE        SUNNY     82  45  27 W8        29.60S                  
DYESS AFB      SUNNY     85  47  26 SW10      29.59R                  
JUNCTION       MOSUNNY   87  58  37 W7        29.60S                  
SWEETWATER     SUNNY     84  28  13 SW17G24   29.65S                  
BROWNWOOD      SUNNY     81  72  74 CALM      29.56F                  
COLEMAN        CLEAR     85  48  27 NW6       29.59S                  
SONORA         SUNNY     86  41  20 VRB5      29.67S                  
OZONA          FAIR      86  34  15 NW5       29.67S                  
BRADY          NOT AVBL                                               
$$

TEXAS PANHANDLE/OKLAHOMA PANHANDLE
  
CITY           SKY/WX    TMP DP  RH WIND       PRES   REMARKS
AMARILLO       SUNNY     56  45  66 NW14      29.75S                  
BORGER         MOSUNNY   55  45  68 N13       29.76F                  
CANADIAN       CLOUDY    51  49  92 N8        29.75R                  
DALHART        PTSUNNY   50  41  71 N17       29.80R                  
DUMAS          CLOUDY    46  45  96 N20       29.78R WCI  38          
GUYMON         NOT AVBL                                               
HEREFORD       CLEAR     61  47  60 N16G23    29.75R                  
PAMPA          CLOUDY    51  49  94 N14       29.76S                  
PERRYTON       CLOUDY    50  47  91 N6        29.76S                  
$$

SOUTHERN PANHANDLE/SOUTH PLAINS/ROLLING PLAINS
  
CITY           SKY/WX    TMP DP  RH WIND       PRES   REMARKS
LUBBOCK        MOSUNNY   71  42  35 N17       29.68R                  
SNYDER           N/A     81  23  11 W24G33    29.65R                  
CHILDRESS      SUNNY     67  53  61 NE15G24   29.67R                  
SEMINOLE       CLEAR     76  17  11 SW20      29.73R                  
$$

PERMIAN BASIN
  
CITY           SKY/WX    TMP DP  RH WIND       PRES   REMARKS
MIDLAND        SUNNY     81  14   8 W26G38    29.69R                  
ODESSA         SUNNY     80  13   8 W30G43    29.70S                  
WINK           SUNNY     79  15   9 W26G35    29.71R                  
$$

FAR WEST/SOUTHWEST MOUNTAINS/TRANS PECOS
  
CITY           SKY/WX    TMP DP  RH WIND       PRES   REMARKS
ALPINE         CLEAR     75  17  11 W16G24    29.87S                  
DRYDEN           N/A     92  26   9 W9        29.60S                  
EL PASO        MOSUNNY   72  21  14 W21G33    29.81R                  
FORT STOCKTON  SUNNY     80  12   7 W24G39    29.71R                  
GUADALUPE PASS SUNNY     65  13  13 W28G48    29.86S                  
MARFA          SUNNY     71  14  11 W16G25    29.87R                  
PECOS          CLEAR     80  14   8 W16G30    29.73R                  
$$

DALLAS/FORT WORTH METROPLEX
  
CITY           SKY/WX    TMP DP  RH WIND       PRES   REMARKS
DFW AIRPORT    PTSUNNY   76  68  76 S8        29.54S                  
FTW MEACHAM    CLOUDY    76  71  85 S10       29.52F                  
DAL-EXECUTIVE  CLOUDY    74  71  91 SE6       29.55R FOG              
GRAND PRAIRIE  MOSUNNY   73  66  78 SE7       29.55S                  
ADDISON        PTSUNNY   73  73 100 SE6       29.54S                  
MESQUITE       CLOUDY    72  70  94 SE9       29.56S                  
LANCASTER      CLOUDY    71  67  88 E3        29.57R                  
$$

NORTH CENTRAL TEXAS
  
CITY           SKY/WX    TMP DP  RH WIND       PRES   REMARKS
SHRMAN/DENISON CLOUDY    69  65  86 SE14G20   29.58R                  
GAINESVILLE    MOSUNNY   76  68  76 E6        29.58R                  
BRIDGEPORT     CLEAR     78  71  78 S9G16     29.54S                  
DENTON         SUNNY     74  66  76 S8        29.53R                  
WAXAHACHIE     CLOUDY    75  75  99 S3        29.55S FOG              
GRANBURY       CLOUDY    77  70  77 SE10      29.55F                  
$$

WESTERN NORTH TEXAS
  
CITY           SKY/WX    TMP DP  RH WIND       PRES   REMARKS
WICHITA FALLS  MOSUNNY   73  61  65 NW13G24   29.55R                  
VERNON         CLEAR     69  55  60 N17       29.62R                  
BRECKENRIDGE   CLEAR     86  46  25 W6        29.55S HAZE             
COMANCHE       SUNNY     78  70  77 SW6       29.56F                  
$$

CENTRAL AND SOUTH CENTRAL TEXAS
  
CITY           SKY/WX    TMP DP  RH WIND       PRES   REMARKS
AUSTIN/BERGSTM PTSUNNY   82  74  76 S10       29.56F                  
WACO           PTSUNNY   80  71  74 S16G25    29.52F                  
HILLSBORO      CLOUDY    77  72  84 S10       29.55S                  
TEMPLE         CLOUDY    80  73  79 S17       29.55F                  
KILLEEN-GRAY   CLOUDY    78  73  84 SE13      29.54S                  
FORT HOOD      CLOUDY    78  73  84 S14       29.53F                  
GEORGETOWN     CLOUDY    82  73  74 S12G28    29.56F                  
LAGO VISTA     CLOUDY    82  73  72 S13G23    29.59F                  
SAN MARCOS     MOSUNNY   82  73  74 S14       29.58F                  
NEW BRAUNFELS  CLOUDY    84  74  71 S12       29.57S                  
RANDOLPH AFB   MOSUNNY   83  77  81 SE7       29.58S                  
SAN ANTONIO    PTSUNNY   83  74  74 SE9       29.58F                  
STINSON        CLOUDY    86  74  67 SE8       29.55S                  
PLEASANTON     NOT AVBL                                               
LA GRANGE        N/A     82  76  83 S12G21    29.57F HAZE             
GIDDINGS       MOCLDY    80  73  79 S10G17    29.62F HAZE             
$$

EAST TEXAS
  
CITY           SKY/WX    TMP DP  RH WIND       PRES   REMARKS
PARIS          CLOUDY    70  61  73 E14G20    29.60S THUNDER          
CLARKSVILLE    NOT AVBL                                               
TYLER          TSTM      73  70  90 W5        29.61R FOG              
LONGVIEW       CLOUDY    75  70  84 SE10      29.62R                  
PALESTINE      RAIN      74  73  94 SE9       29.61R                  
NACOGDOCHES    CLOUDY    79  70  73 S15G21    29.62S                  
$$

TEXAS HILL COUNTRY AND EDWARDS PLATEAU
  
CITY           SKY/WX    TMP DP  RH WIND       PRES   REMARKS
LLANO          CLOUDY    82  72  69 SW3       29.58S                  
HORSESHOE BAY  FAIR      83  73  70 S15G21    29.56F                  
KERRVILLE      CLOUDY    82  75  80 S10       29.62S HAZE             
FREDERICKSBRG  MOSUNNY   81  69  67 S12G17    29.62R                  
ROCKSPRINGS    PTCLDY    81  68  65 CALM      29.67R                  
HONDO          CLOUDY    85  73  67 NW7       29.60S                  
UVALDE         CLOUDY    85  69  57 CALM      29.58S                  
DEL RIO        CLOUDY    86  69  56 SE9       29.55S                  
$$

SOUTHEAST TEXAS
  
CITY           SKY/WX    TMP DP  RH WIND       PRES   REMARKS
COLLEGE STN    CLOUDY    80  75  84 S13       29.59S                  
CALDWELL       PTCLDY    79  75  89 S16       29.60F                  
CROCKETT       TSTM      75  73  94 SW13G18   29.61F                  
BRENHAM        CLOUDY    81  75  83 S14G23    29.62R                  
HUNTSVILLE     LGT RAIN  80  74  81 S12       29.61S                  
CONROE         CLOUDY    80  72  76 S14G24    29.64R                  
HOUSTON BUSH   CLOUDY    79  71  76 S20G26    29.64S                  
HOUSTON HOBBY  CLOUDY    80  73  79 S20G32    29.65S                  
PERLAND        CLOUDY    81  74  79 S15G25    29.68S                  
WHARTON        CLOUDY    79  74  83 S17G23    29.65S HAZE             
$$

THE UPPER TEXAS COAST
  
CITY           SKY/WX    TMP DP  RH WIND       PRES   REMARKS
ORANGE         CLOUDY    78  71  77 S15G22    29.74S                  
PORT ARTHUR    CLOUDY    78  73  84 S17G24    29.70F                  
GALVESTON      CLOUDY    77  75  93 S20       29.69S                  
ANGLETON       CLOUDY    79  74  84 S20G29    29.67R                  
BAY CITY       CLOUDY    80  75  85 S14G20    29.65S HAZE             
$$

TEXAS COASTAL BEND, RIO GRANDE PLAINS DEEP SOUTH TEXAS
  
CITY           SKY/WX    TMP DP  RH WIND       PRES   REMARKS
VICTORIA       CLOUDY    79  75  87 S17       29.62S FOG              
BEEVILLE       FAIR      84  77  80 SE14G20   29.58S                  
ROCKPORT       CLOUDY    80  75  84 S10G23    29.61S HAZE             
PORT ARANSAS   CLOUDY    79  78  95 SE12G17   29.60F FOG              
PORT LAVACA    CLOUDY    79  75  89 S15       29.63S FOG              
CORPUS CHRISTI CLOUDY    82  76  81 S18G28    29.59R                  
KINGSVILLE NAS CLOUDY    83  79  88 SE13      29.58R                  
COTULLA        CLOUDY    93  65  39 W6        29.54S                  
LAREDO         CLOUDY    92  68  45 SE9       29.55R                  
BROWNSVILLE    CLOUDY    81  77  88 SE20G26   29.61R FOG              
PORT ISABEL    CLOUDY    82  77  84 S18G25    29.59S HAZE             
HEBBRONVILLE   CLOUDY    88  70  54 S13       29.58S                  
MCALLEN        CLOUDY    86  75  69 SE15      29.58R                  
WESLACO        CLOUDY    83  75  76 SE12G17   29.58R HAZE             
FALFURRIAS     CLOUDY    87  73  64 SE12G18   29.57R                  
EDINBURG       CLOUDY    86  74  68 SE17      29.58R                  
$$
  

Return to Home page


Western Regional Climate Center, wrcc@dri.edu